Regional Weather Roundup
Issued by NWS

Home | Current Version | Previous Version | Graphics & Text | Print | Product List | Glossary On
Versions: 1 2 3 4 5 6 7 8 9 10 11 12 13 14 15 16 17 18 19 20 21 22 23 24 25 26 27 28 29 30 31 32 33 34 35 36 37 38 39 40 41 42 43 44 45 46 47 48 49 50
000
ASUS45 KABQ 280101
RWRNM
NEW MEXICO REGIONAL WEATHER ROUNDUP
NATIONAL WEATHER SERVICE ALBUQUERQUE NM
700 PM MDT WED JUL 27 2016

NOTE: "FAIR" MEANS FEW OR NO CLOUDS BELOW 12,000 FEET AGL WITH NO
       SIGNIFICANT WEATHER OR OBSTRUCTIONS TO VISION.

      THIS PRODUCT IS RELEASED AS TWO VERSIONS.  ONE VERSION NEAR
      THE TOP OF THE HOUR CONTAINING PRELIMINARY DATA FROM ALBUQUERQUE
      AND OTHER STATIONS.  A FINAL VERSION WITH ADDITIONAL DATA IS
      ISSUED ABOUT 10 MINUTES AFTER THE HOUR.

NMZ501-503-504-510>518-280200-
NORTHWEST PLATEAU/NORTHCENTRAL MOUNTAINS

CITY           SKY/WX    TMP DP  RH WIND       PRES   REMARKS
FARMINGTON     FAIR      97  26   8 NW12      30.04F
LOS ALAMOS     FAIR      82  42  24 S15G22    30.25F
SANTA FE       FAIR      86  43  22 SE17G24   30.17F
TAOS           FAIR      84  37  18 E18       30.24F
ANGEL FIRE     FAIR      75  41  30 N8        30.38F

$$
NMZ402-403-502-505>509-280200-
WESTCENTRAL MOUNTAINS/SOUTHWEST MOUNTAINS

CITY           SKY/WX    TMP DP  RH WIND       PRES   REMARKS
GALLUP         FAIR      91  29  11 NE14      30.18F
GRANTS         FAIR      90  31  12 N7        30.18F
SILVER CITY    FAIR      77  58  51 N3        30.13S

$$
NMZ407-409-411-412-280200-
SOUTHERN DESERTS

CITY           SKY/WX    TMP DP  RH WIND       PRES   REMARKS
LORDSBURG      FAIR      77  59  53 CALM      30.02F
DEMING         FAIR      81  66  60 W5        30.03F
LAS CRUCES     FAIR      87  55  33 E14       30.05S
HOLLOMAN AFB   FAIR      92  53  25 SE10      30.00S
ALAMOGORDO     FAIR      90  54  29 S9        30.03S
T OR C         FAIR      90  53  28 SE14      30.04F

$$
NMZ519>523-280200-
CENTRAL VALLEYS/CENTRAL HIGHLANDS

CITY           SKY/WX    TMP DP  RH WIND       PRES   REMARKS
ALBUQUERQUE    PTSUNNY   87  45  23 SE17      30.10S
DOUBLE EAGLE   PTSUNNY   81  54  39 SW8       30.17R THUNDER
MORIARTY ARPT  FAIR      76  47  35 S17G29    30.17F
CLINES CORNERS FAIR      72  53  51 W8        30.26F
BELEN          FAIR      92  46  20 SE12G17   30.08F
SOCORRO        LGT RAIN  83  60  46 SW3       30.05F

$$
NMZ524>526-539-540-280200-
SOUTHCENTRAL MOUNTAINS

CITY           SKY/WX    TMP DP  RH WIND       PRES   REMARKS
RUIDOSO          N/A     77  50  38 S5        30.28S

$$
NMZ527>531-280200-
NORTHEAST HIGHLANDS/NORTHEAST PLAINS

CITY           SKY/WX    TMP DP  RH WIND       PRES   REMARKS
LAS VEGAS      PTSUNNY   79  44  28 W5        30.24F
RATON          FAIR      82  51  34 SE7       30.19R
CLAYTON        FAIR      81  60  48 S14       30.13R

$$
NMZ532>537-280200-
EASTCENTRAL PLAINS

CITY           SKY/WX    TMP DP  RH WIND       PRES   REMARKS
TUCUMCARI      FAIR      80  58  46 SE21G33   30.05R
CANNON AFB     PTSUNNY   81  60  48 SE10      30.09S
CLOVIS AIRPORT FAIR      81  55  41 SE6       30.09S

$$
NMZ028-029-538-280200-
SOUTHEAST PLAINS

CITY           SKY/WX    TMP DP  RH WIND       PRES   REMARKS
ROSWELL        LGT RAIN  84  59  42 E23G36    30.00R
ARTESIA        FAIR      93  54  26 SE7       29.99R
CARLSBAD       FAIR      94  53  25 SE9       29.95F
HOBBS          FAIR      84  57  39 N22G31    30.04S


$$




USA.gov is the U.S. government's official web portal to all federal, state and local government web resources and services.